STARLINK-35493 (65928 NORAD) Tracking and Keplerian Element Data

This shows tracking and keplerian element data for the satellite.

Feedback or suggestion? Click here.




ElementValue
Catalog65928
NameSTARLINK-35493
Epoch Orbit1204
Epoch Day352.94350843
Epoch Year2025
RAAN180.8676
Inclination53.1586
Eccentricity0.0001148
Argument of Perigee63.2717
Mean Anonmoly296.8401
Mean Motion15.30202211
Decay Rate0.00031197
L11 65928U 25225U 25352.94350843 .00031197 00000+0 10609-2 0 9997
L22 65928 53.1586 180.8676 0001148 63.2717 296.8401 15.30202211 12040



Live tracking and technical data element details for STARLINK-35493 (NORAD 65928). STARLINK-35493 can be tracked NOW for your location showing map with azimuth and elevation plus other details from your city location.







IsCatalogInMostPopularTable: catalog: 65928, numindb: 3
Update: records affected: 1



GetName: 65928 STARLINK-35493

Hit Count: updated at: Mon, 09 Feb 2026 08:02:02 GMT